Tracking 32136 objects as of 11-Nov-2025
HD Live streaming from Space Station
objects crossing your sky now

GORIZONT 30

Track GORIZONT 30 now!
GORIZONT 30 is classified as:


NORAD ID: 23108
Int'l Code: 1994-030A
Perigee: 35,774.9 km
Apogee: 35,829.3 km
Inclination: 14.2 °
Period: 1,436.5 minutes
Semi major axis: 42173 km
RCS: 12.5892 m2 (large)
Launch date: May 20, 1994
Source: Commonwealth of Independent States (former USSR) (CIS)
Launch site: TYURATAM MISSILE AND SPACE COMPLEX (TTMTR)
Your satellite tracking list
Your tracking list is empty




NASA's NSSDC Master Catalog

Two Line Element Set (TLE):
1 23108U 94030A   25314.88068272 -.00000228  00000-0  00000-0 0  9999
2 23108  14.1515 349.8063 0006445 263.8373  87.3092  1.00241920115260
Source of the keplerian elements: AFSPC